| time (UTC) | temp C | wind direction | speed KPH | gust KPH | rain 1hr cm | rain 24hr cm | rain mn cm | humidity % | barometer mb |
| 20260504050323 | 16 | 152 | 0.0 | 0.0 | 0.00 | 0.00 | 0.00 | 72 | 1012.3 |
| 20260504045820 | 16 | 152 | 0.0 | 0.0 | 0.00 | 0.00 | 0.00 | 71 | 1012.0 |
| 20260504045320 | 16 | 153 | 0.0 | 0.0 | 0.00 | 0.00 | 0.00 | 70 | 1012.0 |
| 20260504044817 | 16 | 152 | 0.0 | 0.0 | 0.00 | 0.00 | 0.00 | 69 | 1012.1 |
| 20260504044314 | 16 | 152 | 0.0 | 0.0 | 0.00 | 0.00 | 0.00 | 68 | 1012.1 |
| 20260504043812 | 16 | 152 | 0.0 | 0.0 | 0.00 | 0.00 | 0.00 | 67 | 1012.1 |
| 20260504043308 | 17 | 152 | 0.0 | 0.0 | 0.00 | 0.00 | 0.00 | 65 | 1011.9 |
| 20260504042806 | 17 | 151 | 0.0 | 1.6 | 0.00 | 0.00 | 0.00 | 65 | 1011.9 |
| 20260504042304 | 17 | 151 | 0.0 | 1.6 | 0.00 | 0.00 | 0.00 | 67 | 1011.9 |
| 20260504041759 | 17 | 149 | 0.0 | 0.0 | 0.00 | 0.00 | 0.00 | 65 | 1011.8 |
| 20260504041255 | 18 | 158 | 0.0 | 0.0 | 0.00 | 0.00 | 0.00 | 64 | 1011.9 |
| 20260504040751 | 18 | 156 | 0.0 | 1.6 | 0.00 | 0.00 | 0.00 | 63 | 1011.8 |
| 20260504040249 | 18 | 143 | 0.0 | 4.8 | 0.00 | 0.00 | 0.00 | 61 | 1011.9 |
| 20260504035744 | 19 | 147 | 0.0 | 0.0 | 0.00 | 0.00 | 0.00 | 59 | 1011.9 |
| 20260504035242 | 20 | 153 | 1.6 | 1.6 | 0.00 | 0.00 | 0.00 | 57 | 1011.9 |
| 20260504034739 | 20 | 124 | 1.6 | 1.6 | 0.00 | 0.00 | 0.00 | 55 | 1011.7 |
| 20260504034236 | 20 | 155 | 0.0 | 8.0 | 0.00 | 0.00 | 0.00 | 54 | 1011.5 |
| 20260504033734 | 20 | 143 | 0.0 | 3.2 | 0.00 | 0.00 | 0.00 | 53 | 1011.7 |
| 20260504033231 | 21 | 144 | 1.6 | 3.2 | 0.00 | 0.00 | 0.00 | 50 | 1011.8 |
| 20260504032728 | 21 | 147 | 0.0 | 3.2 | 0.00 | 0.00 | 0.00 | 52 | 1011.5 |
| 20260504032226 | 21 | 140 | 1.6 | 9.7 | 0.00 | 0.00 | 0.00 | 52 | 1011.7 |
| 20260504031722 | 21 | 150 | 1.6 | 3.2 | 0.00 | 0.00 | 0.00 | 51 | 1011.6 |
| 20260504031220 | 21 | 142 | 0.0 | 1.6 | 0.00 | 0.00 | 0.00 | 50 | 1011.4 |
| 20260504030715 | 22 | 156 | 0.0 | 1.6 | 0.00 | 0.00 | 0.00 | 48 | 1011.5 |
| 20260504030213 | 22 | 165 | 1.6 | 3.2 | 0.00 | 0.00 | 0.00 | 48 | 1011.5 |
| 20260504025709 | 22 | 133 | 0.0 | 3.2 | 0.00 | 0.00 | 0.00 | 45 | 1011.6 |
| 20260504025205 | 22 | 222 | 6.4 | 9.7 | 0.00 | 0.00 | 0.00 | 44 | 1011.6 |
| 20260504024703 | 23 | 173 | 1.6 | 4.8 | 0.00 | 0.00 | 0.00 | 45 | 1011.6 |
| 20260504024159 | 23 | 10 | 3.2 | 3.2 | 0.00 | 0.00 | 0.00 | 42 | 1011.7 |
| 20260504023656 | 23 | 149 | 1.6 | 9.7 | 0.00 | 0.00 | 0.00 | 42 | 1011.5 |
| 20260504023152 | 23 | 165 | 1.6 | 1.6 | 0.00 | 0.00 | 0.00 | 44 | 1011.5 |
| 20260504022648 | 24 | 159 | 1.6 | 8.0 | 0.00 | 0.00 | 0.00 | 44 | 1011.5 |
| 20260504022144 | 24 | 179 | 3.2 | 3.2 | 0.00 | 0.00 | 0.00 | 42 | 1011.4 |
| 20260504021642 | 25 | 171 | 1.6 | 3.2 | 0.00 | 0.00 | 0.00 | 41 | 1011.4 |
| 20260504021139 | 25 | 152 | 4.8 | 9.7 | 0.00 | 0.00 | 0.00 | 41 | 1011.6 |
| 20260504020636 | 25 | 116 | 4.8 | 4.8 | 0.00 | 0.00 | 0.00 | 40 | 1011.7 |
| 20260504020132 | 25 | 156 | 1.6 | 8.0 | 0.00 | 0.00 | 0.00 | 40 | 1011.5 |
| 20260504015628 | 25 | 142 | 3.2 | 9.7 | 0.00 | 0.00 | 0.00 | 40 | 1011.4 |
| 20260504015125 | 26 | 233 | 3.2 | 9.7 | 0.00 | 0.00 | 0.00 | 40 | 1011.7 |
| 20260504014621 | 26 | 176 | 1.6 | 4.8 | 0.00 | 0.00 | 0.00 | 40 | 1011.6 |
| 20260504014118 | 26 | 70 | 1.6 | 4.8 | 0.00 | 0.00 | 0.00 | 39 | 1011.6 |
| 20260504013615 | 26 | 157 | 1.6 | 3.2 | 0.00 | 0.00 | 0.00 | 38 | 1011.6 |
| 20260504013112 | 27 | 20 | 6.4 | 8.0 | 0.00 | 0.00 | 0.00 | 37 | 1011.6 |
| 20260504012610 | 27 | 356 | 4.8 | 8.0 | 0.00 | 0.00 | 0.00 | 37 | 1011.9 |
| 20260504012108 | 27 | 187 | 3.2 | 4.8 | 0.00 | 0.00 | 0.00 | 37 | 1011.6 |
| 20260504011604 | 27 | 166 | 1.6 | 8.0 | 0.00 | 0.00 | 0.00 | 36 | 1011.8 |
| 20260504011100 | 27 | 239 | 4.8 | 9.7 | 0.00 | 0.00 | 0.00 | 36 | 1011.7 |
| 20260504010556 | 27 | 169 | 1.6 | 3.2 | 0.00 | 0.00 | 0.00 | 38 | 1011.9 |
| 20260504010052 | 27 | 156 | 3.2 | 4.8 | 0.00 | 0.00 | 0.00 | 36 | 1011.7 |
| 20260504005549 | 27 | 231 | 3.2 | 4.8 | 0.00 | 0.00 | 0.00 | 37 | 1011.9 |
| 20260504005046 | 28 | 189 | 4.8 | 8.0 | 0.00 | 0.00 | 0.00 | 37 | 1012.1 |
| 20260504004544 | 28 | 183 | 3.2 | 9.7 | 0.00 | 0.00 | 0.00 | 36 | 1012.0 |
| 20260504004041 | 28 | 96 | 1.6 | 3.2 | 0.00 | 0.00 | 0.00 | 36 | 1012.2 |
| 20260504003537 | 28 | 164 | 1.6 | 3.2 | 0.00 | 0.00 | 0.00 | 37 | 1012.0 |
| 20260504003034 | 28 | 203 | 4.8 | 4.8 | 0.00 | 0.00 | 0.00 | 36 | 1012.2 |
| 20260504002531 | 28 | 149 | 1.6 | 11.3 | 0.00 | 0.00 | 0.00 | 34 | 1012.2 |
| 20260504002029 | 28 | 132 | 1.6 | 4.8 | 0.00 | 0.00 | 0.00 | 34 | 1012.3 |
| 20260504001526 | 28 | 348 | 6.4 | 9.7 | 0.00 | 0.00 | 0.00 | 35 | 1012.3 |
| 20260504001022 | 28 | 98 | 9.7 | 11.3 | 0.00 | 0.00 | 0.00 | 34 | 1012.3 |
| 20260504000519 | 28 | 168 | 0.0 | 11.3 | 0.00 | 0.00 | 0.00 | 34 | 1012.3 |
| 20260504000017 | 28 | 27 | 9.7 | 14.5 | 0.00 | 0.00 | 0.00 | 34 | 1012.5 |
| 20260503235515 | 28 | 181 | 3.2 | 8.0 | 0.00 | 0.00 | 0.00 | 34 | 1012.5 |
| 20260503235011 | 28 | 339 | 6.4 | 11.3 | 0.00 | 0.00 | 0.00 | 35 | 1012.6 |
| 20260503234509 | 28 | 260 | 4.8 | 11.3 | 0.00 | 0.00 | 0.00 | 36 | 1012.5 |
| 20260503234007 | 27 | 187 | 1.6 | 8.0 | 0.00 | 0.00 | 0.00 | 36 | 1012.7 |
| 20260503233503 | 27 | 227 | 6.4 | 11.3 | 0.00 | 0.00 | 0.00 | 36 | 1012.9 |
| 20260503232959 | 28 | 91 | 8.0 | 11.3 | 0.00 | 0.00 | 0.00 | 37 | 1012.8 |
| 20260503232456 | 28 | 30 | 4.8 | 8.0 | 0.00 | 0.00 | 0.00 | 37 | 1012.9 |
| 20260503231954 | 28 | 6 | 4.8 | 9.7 | 0.00 | 0.00 | 0.00 | 37 | 1013.0 |
| 20260503231452 | 28 | 159 | 4.8 | 11.3 | 0.00 | 0.00 | 0.00 | 37 | 1012.8 |
| 20260503230948 | 27 | 156 | 4.8 | 11.3 | 0.00 | 0.00 | 0.00 | 38 | 1013.0 |
| 20260503230444 | 27 | 219 | 4.8 | 4.8 | 0.00 | 0.00 | 0.00 | 38 | 1013.2 |
| 20260503225942 | 27 | 305 | 1.6 | 4.8 | 0.00 | 0.00 | 0.00 | 38 | 1013.4 |
| 20260503225439 | 27 | 220 | 4.8 | 12.9 | 0.00 | 0.00 | 0.00 | 38 | 1013.2 |
| 20260503224934 | 27 | 229 | 3.2 | 9.7 | 0.00 | 0.00 | 0.00 | 38 | 1013.2 |
| 20260503224431 | 27 | 199 | 4.8 | 8.0 | 0.00 | 0.00 | 0.00 | 39 | 1013.5 |
| 20260503223929 | 27 | 230 | 4.8 | 11.3 | 0.00 | 0.00 | 0.00 | 38 | 1013.4 |
| 20260503223427 | 27 | 209 | 6.4 | 9.7 | 0.00 | 0.00 | 0.00 | 38 | 1013.4 |
| 20260503222922 | 27 | 190 | 4.8 | 4.8 | 0.00 | 0.00 | 0.00 | 37 | 1013.6 |
| 20260503222421 | 27 | 246 | 6.4 | 9.7 | 0.00 | 0.00 | 0.00 | 39 | 1013.6 |
| 20260503221919 | 26 | 236 | 4.8 | 9.7 | 0.00 | 0.00 | 0.00 | 40 | 1013.9 |
| 20260503221417 | 26 | 191 | 6.4 | 14.5 | 0.00 | 0.00 | 0.00 | 40 | 1013.9 |
| 20260503220913 | 26 | 269 | 11.3 | 12.9 | 0.00 | 0.00 | 0.00 | 39 | 1013.9 |
| 20260503220410 | 26 | 207 | 11.3 | 14.5 | 0.00 | 0.00 | 0.00 | 38 | 1013.9 |
| 20260503215907 | 27 | 359 | 8.0 | 9.7 | 0.00 | 0.00 | 0.00 | 39 | 1014.0 |
| 20260503215404 | 27 | 206 | 4.8 | 8.0 | 0.00 | 0.00 | 0.00 | 39 | 1013.9 |
| 20260503214901 | 26 | 218 | 6.4 | 9.7 | 0.00 | 0.00 | 0.00 | 40 | 1014.0 |
| 20260503214358 | 26 | 254 | 6.4 | 11.3 | 0.00 | 0.00 | 0.00 | 41 | 1014.1 |
| 20260503213856 | 26 | 29 | 8.0 | 11.3 | 0.00 | 0.00 | 0.00 | 40 | 1014.1 |
| 20260503213354 | 26 | 222 | 6.4 | 17.7 | 0.00 | 0.00 | 0.00 | 40 | 1014.2 |
| 20260503212850 | 26 | 232 | 4.8 | 9.7 | 0.00 | 0.00 | 0.00 | 40 | 1014.1 |
| 20260503212348 | 26 | 234 | 4.8 | 11.3 | 0.00 | 0.00 | 0.00 | 40 | 1014.2 |
| 20260503211845 | 26 | 245 | 4.8 | 8.0 | 0.00 | 0.00 | 0.00 | 42 | 1014.3 |
| 20260503211342 | 25 | 251 | 9.7 | 12.9 | 0.00 | 0.00 | 0.00 | 41 | 1014.3 |
| 20260503210837 | 25 | 132 | 3.2 | 8.0 | 0.00 | 0.00 | 0.00 | 42 | 1014.3 |
| 20260503210334 | 26 | 256 | 9.7 | 11.3 | 0.00 | 0.00 | 0.00 | 40 | 1014.4 |
| 20260503205829 | 26 | 243 | 6.4 | 9.7 | 0.00 | 0.00 | 0.00 | 41 | 1014.4 |
| 20260503205326 | 26 | 6 | 6.4 | 11.3 | 0.00 | 0.00 | 0.00 | 40 | 1014.4 |
| 20260503204823 | 26 | 282 | 8.0 | 9.7 | 0.00 | 0.00 | 0.00 | 41 | 1014.6 |
| 20260503204320 | 26 | 159 | 4.8 | 4.8 | 0.00 | 0.00 | 0.00 | 41 | 1014.8 |
| 20260503203817 | 26 | 244 | 6.4 | 9.7 | 0.00 | 0.00 | 0.00 | 42 | 1014.5 |
| 20260503203315 | 25 | 140 | 1.6 | 4.8 | 0.00 | 0.00 | 0.00 | 43 | 1014.6 |
| 20260503202811 | 25 | 233 | 4.8 | 8.0 | 0.00 | 0.00 | 0.00 | 43 | 1014.7 |
| 20260503202310 | 26 | 353 | 9.7 | 22.5 | 0.00 | 0.00 | 0.00 | 42 | 1014.7 |
| 20260503201807 | 25 | 164 | 1.6 | 3.2 | 0.00 | 0.00 | 0.00 | 44 | 1014.9 |
| 20260503201304 | 26 | 177 | 9.7 | 12.9 | 0.00 | 0.00 | 0.00 | 42 | 1015.0 |
| 20260503200802 | 26 | 155 | 1.6 | 3.2 | 0.00 | 0.00 | 0.00 | 43 | 1015.0 |
| 20260503200257 | 25 | 205 | 4.8 | 8.0 | 0.00 | 0.00 | 0.00 | 45 | 1015.0 |
| 20260503195755 | 25 | 175 | 4.8 | 12.9 | 0.00 | 0.00 | 0.00 | 44 | 1014.9 |
| 20260503195251 | 25 | 254 | 4.8 | 8.0 | 0.00 | 0.00 | 0.00 | 44 | 1015.1 |
| 20260503194749 | 25 | 126 | 3.2 | 4.8 | 0.00 | 0.00 | 0.00 | 45 | 1015.3 |
| 20260503194245 | 25 | 164 | 1.6 | 3.2 | 0.00 | 0.00 | 0.00 | 46 | 1015.2 |
| 20260503193741 | 25 | 146 | 6.4 | 11.3 | 0.00 | 0.00 | 0.00 | 46 | 1015.4 |
| 20260503193237 | 25 | 14 | 4.8 | 8.0 | 0.00 | 0.00 | 0.00 | 48 | 1015.4 |
| 20260503192733 | 25 | 231 | 11.3 | 12.9 | 0.00 | 0.00 | 0.00 | 44 | 1015.5 |
| 20260503192228 | 25 | 116 | 4.8 | 4.8 | 0.00 | 0.00 | 0.00 | 46 | 1015.4 |
| 20260503191725 | 25 | 100 | 6.4 | 9.7 | 0.00 | 0.00 | 0.00 | 45 | 1015.4 |
| 20260503191222 | 24 | 143 | 1.6 | 11.3 | 0.00 | 0.00 | 0.00 | 47 | 1015.6 |
| 20260503190719 | 25 | 144 | 6.4 | 11.3 | 0.00 | 0.00 | 0.00 | 46 | 1015.8 |
| 20260503190215 | 24 | 342 | 6.4 | 9.7 | 0.00 | 0.00 | 0.00 | 47 | 1015.8 |
| 20260503185713 | 24 | 177 | 4.8 | 8.0 | 0.00 | 0.00 | 0.00 | 45 | 1015.7 |
| 20260503185208 | 24 | 78 | 4.8 | 8.0 | 0.00 | 0.00 | 0.00 | 48 | 1016.0 |
| 20260503184703 | 24 | 112 | 3.2 | 11.3 | 0.00 | 0.00 | 0.00 | 48 | 1016.1 |
| 20260503184200 | 24 | 118 | 1.6 | 11.3 | 0.00 | 0.00 | 0.00 | 48 | 1016.1 |
| 20260503183656 | 23 | 86 | 4.8 | 11.3 | 0.00 | 0.00 | 0.00 | 48 | 1016.2 |
| 20260503183154 | 24 | 115 | 6.4 | 11.3 | 0.00 | 0.00 | 0.00 | 48 | 1016.4 |
| 20260503182651 | 23 | 159 | 0.0 | 3.2 | 0.00 | 0.00 | 0.00 | 49 | 1015.9 |
| 20260503182150 | 23 | 130 | 6.4 | 11.3 | 0.00 | 0.00 | 0.00 | 50 | 1016.3 |
| 20260503181646 | 23 | 136 | 8.0 | 9.7 | 0.00 | 0.00 | 0.00 | 51 | 1016.3 |
| 20260503181143 | 22 | 189 | 3.2 | 11.3 | 0.00 | 0.00 | 0.00 | 51 | 1016.3 |
| 20260503180640 | 22 | 165 | 9.7 | 14.5 | 0.00 | 0.00 | 0.00 | 51 | 1016.5 |
| 20260503180138 | 22 | 34 | 8.0 | 17.7 | 0.00 | 0.00 | 0.00 | 52 | 1016.3 |
| 20260503175635 | 22 | 9 | 8.0 | 11.3 | 0.00 | 0.00 | 0.00 | 51 | 1016.2 |
| 20260503175132 | 23 | 64 | 8.0 | 11.3 | 0.00 | 0.00 | 0.00 | 52 | 1016.3 |
| 20260503174623 | 22 | 130 | 4.8 | 9.7 | 0.00 | 0.00 | 0.00 | 52 | 1016.5 |
| 20260503174120 | 22 | 155 | 1.6 | 9.7 | 0.00 | 0.00 | 0.00 | 52 | 1016.4 |
| 20260503173615 | 21 | 249 | 4.8 | 8.0 | 0.00 | 0.00 | 0.00 | 55 | 1016.5 |
| 20260503173112 | 21 | 178 | 1.6 | 3.2 | 0.00 | 0.00 | 0.00 | 57 | 1016.3 |
| 20260503172609 | 21 | 220 | 8.0 | 9.7 | 0.00 | 0.00 | 0.00 | 52 | 1016.5 |
| 20260503172106 | 21 | 62 | 6.4 | 9.7 | 0.00 | 0.00 | 0.00 | 52 | 1016.6 |
| 20260503171602 | 21 | 183 | 3.2 | 3.2 | 0.00 | 0.00 | 0.00 | 53 | 1016.6 |
| 20260503171100 | 22 | 95 | 8.0 | 12.9 | 0.00 | 0.00 | 0.00 | 51 | 1016.6 |
| 20260503170556 | 21 | 183 | 3.2 | 4.8 | 0.00 | 0.00 | 0.00 | 52 | 1016.5 |
| 20260503150949 | 15 | 167 | 0.0 | 1.6 | 0.00 | 0.00 | 0.00 | 74 | 1017.0 |
| 20260503150445 | 15 | 157 | 0.0 | 0.0 | 0.00 | 0.00 | 0.00 | 78 | 1016.9 |
| 20260503131331 | 10 | 151 | 0.0 | 0.0 | 0.00 | 0.00 | 0.00 | 90 | 1017.0 |
| 20260503130829 | 10 | 151 | 0.0 | 0.0 | 0.00 | 0.00 | 0.00 | 90 | 1016.8 |
| 20260503130327 | 10 | 149 | 0.0 | 0.0 | 0.00 | 0.00 | 0.00 | 90 | 1016.8 |
| 20260503110720 | 11 | 150 | 0.0 | 1.6 | 0.00 | 0.00 | 0.00 | 84 | 1017.0 |
| 20260503110218 | 11 | 151 | 0.0 | 0.0 | 0.00 | 0.00 | 0.00 | 83 | 1017.1 |
| 20260503100144 | 12 | 112 | 3.2 | 3.2 | 0.00 | 0.00 | 0.00 | 79 | 1017.0 |
| 20260503081538 | 13 | 148 | 0.0 | 0.0 | 0.00 | 0.00 | 0.00 | 73 | 1017.2 |
| 20260503081036 | 13 | 147 | 0.0 | 1.6 | 0.00 | 0.00 | 0.00 | 73 | 1017.2 |
| 20260503080531 | 13 | 149 | 0.0 | 1.6 | 0.00 | 0.00 | 0.00 | 72 | 1017.0 |
| 20260503072506 | 15 | 138 | 1.6 | 1.6 | 0.00 | 0.00 | 0.00 | 65 | 1017.2 |
| 20260503072003 | 15 | 106 | 3.2 | 3.2 | 0.00 | 0.00 | 0.00 | 64 | 1017.1 |
| 20260503071500 | 15 | 122 | 1.6 | 1.6 | 0.00 | 0.00 | 0.00 | 64 | 1017.0 |